{"data":{"norad_id":44316,"intl_designator":"2019-032G","name":"WT 1B","alt_names":[],"object_type":"PAYLOAD","status":"ACTIVE","operator":null,"country":"PRC","launch_date":"2019-06-05","launch_site_code":"YSLA","launch_vehicle":null,"mission":null,"orbit_class":"UNKNOWN","rcs_meters":null,"size_class":null,"mass_kg":null,"dimensions":null,"purposes":[],"wikipedia_slug":null,"has_3d_model":false,"image_url":null,"decayed_at":null,"tle_current":{"epoch":"2026-09-20T04:31:10.643232Z","epoch_age_seconds":85413,"freshness":"FRESH","line1":"1 44316U 19032G   26263.18831763  .00006525  00000+0  23852-3 0  9999","line2":"2 44316  44.9719 261.7027 0009212  73.3220 286.8674 15.28854242401614","mean_motion":15.28854242,"eccentricity":0.0009212,"inclination_deg":44.9719,"raan_deg":261.7027,"arg_perigee_deg":73.322,"mean_anomaly_deg":286.8674,"bstar":0.00023852,"rev_number":40161,"period_min":94.188180955448,"perigee_km":472.91919522142,"apogee_km":485.55321961877,"semimajor_km":6857.3732074201,"source":"CELESTRAK","updated_at":"2026-09-20T09:00:14.458449Z"}}}